Wind_Speed
44 42 40 39 37 35 34 33 31 30 28 28 27 26 26 26 25 25 25 25 25 25 25 25 25 25 26 26 27 27 28 28 28 29 29 30 30 30 30 31 32 33 34
47 45 43 41 39 38 36 35 34 32 31 29 29 28 28 28 27 27 27 26 27 27 27 27 27 27 27 28 28 29 29 29 29 29 29 29 30 30 30 31 33 35 36
49 47 45 43 42 40 39 37 36 34 33 32 31 30 30 29 29 29 28 28 28 28 28 28 29 29 29 29 29 30 30 30 30 29 30 30 29 30 31 33 34 36 37
52 49 48 46 44 43 41 39 38 36 35 34 34 33 32 31 30 30 30 30 30 30 30 30 30 30 30 30 31 31 31 31 30 30 30 30 30 31 32 34 35 36 38
54 52 50 48 46 45 43 41 40 38 38 37 36 35 34 33 32 32 32 32 32 32 31 32 32 32 32 32 31 31 32 31 31 31 30 30 31 32 33 35 36 37 39
54 54 52 51 48 47 45 44 42 41 40 39 38 38 37 35 34 34 34 33 34 33 33 33 33 33 32 32 32 33 32 31 31 30 30 31 32 33 34 36 38 39 40
55 54 53 53 51 49 48 46 45 44 43 42 41 40 39 38 37 36 36 36 36 35 35 34 34 34 34 34 34 33 31 31 31 31 31 32 33 34 36 38 39 40 41
55 53 53 53 52 51 50 50 48 47 46 44 43 42 41 39 38 38 38 37 38 37 36 35 35 35 35 35 34 33 32 32 32 33 33 33 34 36 37 40 41 41 42
52 52 52 53 54 54 52 51 51 49 48 46 44 43 42 41 41 41 39 39 38 38 37 36 36 36 36 35 35 34 34 34 34 34 34 35 35 37 39 41 42 43 44
49 50 50 52 53 54 54 52 52 50 49 47 45 44 43 42 41 40 39 38 38 38 38 37 37 37 36 36 36 36 36 35 35 35 36 36 37 39 41 42 43 45 45
50 52 50 50 50 51 51 51 50 49 49 48 47 45 44 43 43 42 40 40 39 39 39 38 38 38 38 38 38 38 38 37 37 37 37 38 40 41 42 44 45 46 46
48 51 52 50 49 49 49 49 48 47 48 47 46 46 45 44 44 43 41 41 41 40 40 40 40 40 40 40 40 40 39 39 38 39 39 40 41 43 44 46 47 47 47
45 47 49 49 49 50 49 49 47 47 47 46 46 46 46 45 43 41 41 41 42 42 42 42 42 43 43 43 42 42 41 40 40 40 41 42 43 44 46 46 47 47 47
44 44 47 47 46 45 46 46 47 47 48 48 47 47 46 45 44 43 42 43 43 44 44 44 45 46 45 44 44 44 43 43 42 42 43 43 44 45 46 47 47 47 47
42 43 44 42 42 42 42 44 45 45 46 45 46 46 45 45 46 46 46 46 46 46 47 47 47 47 46 45 45 45 44 44 44 44 44 45 45 46 47 47 47 47 46
37 39 42 42 42 42 42 43 44 45 46 46 47 47 48 48 47 48 48 48 49 49 49 47 47 45 45 45 45 46 46 45 45 45 46 46 46 47 46 47 46 46 45
33 34 36 38 40 41 44 45 46 46 47 48 48 48 48 48 48 49 50 50 51 51 49 47 47 47 47 46 46 46 47 47 47 47 47 47 47 47 46 46 45 45 43
32 34 35 37 39 41 43 44 46 47 47 47 48 48 48 49 50 51 52 51 50 50 49 50 49 49 48 48 48 48 48 49 48 48 47 47 47 46 46 45 44 43 41
31 33 35 37 39 40 41 43 45 47 48 50 51 51 52 53 53 53 53 51 51 50 50 51 51 50 50 50 50 50 50 49 49 48 48 48 47 45 44 43 42 41 40
30 33 36 38 40 42 43 45 47 48 49 50 52 53 52 52 52 53 53 52 52 52 52 52 51 51 51 51 51 51 50 49 48 48 48 47 45 44 43 41 41 40 39
29 32 35 37 39 41 44 45 47 47 48 49 50 51 52 53 53 53 54 54 54 54 53 53 53 52 51 51 51 51 50 49 48 47 47 45 44 43 42 41 40 39 37
29 32 35 38 40 42 44 46 48 49 50 51 52 54 54 55 56 56 57 57 57 56 56 56 55 54 53 52 52 51 49 48 47 47 46 44 43 42 41 40 39 38 36
32 35 38 41 44 45 47 48 50 52 53 54 54 55 55 57 58 58 59 60 59 59 58 57 56 56 54 53 52 50 49 48 47 46 45 44 43 42 41 40 38 37 35
37 39 42 45 47 49 51 51 52 54 54 55 56 57 57 58 60 60 61 61 60 60 59 58 57 56 54 53 52 51 50 48 47 46 45 43 42 41 40 38 37 35 33
44 46 48 50 52 54 56 56 57 57 58 58 59 59 60 60 61 62 62 62 62 61 61 59 58 55 53 52 51 50 49 48 46 45 44 42 42 41 39 37 35 33 32
51 53 54 55 57 58 58 59 60 61 60 60 60 60 61 62 63 63 63 62 62 61 60 59 58 56 54 52 51 49 48 47 46 44 43 42 41 39 37 36 34 32 31
Wind_Direction
236 237 238 240 241 242 243 245 246 248 251 253 254 256 258 261 262 263 264 265 268 270 273 275 278 281 284 286 289 292 295 298 300 303 306 308 310 311 313 314 315 316 317
234 236 237 239 240 242 243 245 246 248 250 252 254 256 258 261 263 264 265 266 269 271 273 276 278 281 283 286 289 291 294 296 299 302 305 307 308 309 311 312 314 315 315
233 234 236 238 239 241 243 245 246 248 250 252 254 255 258 261 263 264 266 267 270 272 274 276 278 280 283 286 288 291 293 295 297 300 303 305 306 308 310 311 312 313 314
231 233 235 237 239 241 243 245 246 247 249 252 253 255 257 260 262 265 266 267 270 272 274 276 277 280 283 286 288 290 292 294 296 298 301 302 304 306 308 310 312 313 313
230 232 234 236 238 241 243 245 246 248 249 252 253 255 257 259 261 264 265 267 270 272 274 275 277 279 281 284 287 289 291 292 294 297 299 301 303 305 307 309 311 311 312
230 231 234 236 238 240 242 244 246 248 249 252 253 255 257 258 261 263 265 267 270 271 273 274 277 279 281 283 286 288 289 289 291 294 296 299 302 304 306 308 309 310 310
231 231 234 236 238 240 242 244 245 247 249 251 253 255 257 258 261 262 265 267 268 270 272 273 276 278 280 283 285 285 285 287 289 292 294 297 300 302 305 307 308 309 310
230 230 233 236 238 240 241 243 246 247 250 251 253 255 256 257 260 262 265 266 267 269 271 273 275 276 279 281 282 281 283 285 288 289 292 295 298 301 303 305 306 308 308
231 232 233 236 237 239 241 243 245 247 250 252 253 255 256 258 260 262 264 267 267 268 270 272 274 276 277 278 279 280 282 284 285 287 290 293 296 299 302 304 306 307 307
231 232 234 236 237 239 240 243 247 247 249 251 252 254 256 259 261 261 263 266 267 269 270 272 274 275 276 277 278 279 280 282 284 286 289 292 295 298 300 303 304 305 305
229 231 233 235 237 239 241 244 247 248 249 251 252 254 255 258 262 262 263 265 268 270 271 272 273 275 276 277 278 278 279 280 282 285 288 291 294 297 299 301 303 303 303
230 231 232 235 236 239 241 244 247 250 251 252 253 254 257 261 263 263 263 265 267 270 271 273 273 275 276 276 276 277 277 278 280 284 287 290 293 295 298 300 301 302 302
231 231 232 235 238 241 243 245 248 250 251 253 256 257 259 261 262 263 265 266 267 270 272 273 272 273 275 275 275 275 275 276 279 282 286 288 291 294 296 298 300 300 301
231 234 237 239 242 245 246 249 250 252 253 255 257 259 262 264 263 264 266 267 268 270 272 272 271 273 274 274 274 274 274 276 279 282 285 287 290 293 295 296 298 299 299
235 237 238 240 242 244 246 250 252 253 256 258 258 260 263 264 264 265 266 266 267 269 271 271 271 271 270 271 272 273 274 276 279 282 285 287 289 291 293 295 296 298 298
236 238 239 240 242 245 247 249 251 254 255 257 259 261 263 265 263 263 264 265 266 268 268 269 268 268 268 269 271 272 274 277 279 282 284 286 288 290 292 293 295 296 297
239 239 240 243 244 247 251 252 253 255 256 257 259 261 262 263 264 263 266 267 267 267 267 266 266 267 268 269 271 272 274 276 278 280 283 285 287 289 290 292 293 295 296
243 243 245 246 248 251 252 254 256 257 258 259 261 262 263 264 265 265 266 267 266 264 265 266 266 267 268 269 271 273 274 276 277 279 281 284 286 288 289 290 292 294 294
246 247 249 251 252 254 256 258 259 260 262 262 262 263 265 266 265 265 265 264 263 263 265 265 265 266 267 269 270 272 274 275 276 278 280 283 285 287 288 289 291 292 293
249 252 255 257 258 259 260 261 262 263 263 263 263 263 264 265 264 263 262 261 261 262 263 264 264 266 267 268 270 272 273 275 276 278 280 282 284 286 287 288 290 290 291
256 258 259 260 261 262 262 262 264 264 264 264 263 262 263 263 262 261 259 259 260 260 261 263 264 265 267 268 270 271 272 274 275 278 280 282 283 284 284 286 288 289 289
262 264 264 265 265 266 266 266 266 265 264 264 264 265 264 262 261 260 259 259 260 260 261 262 264 265 266 267 268 269 271 273 275 278 279 280 281 282 283 285 286 287 287
269 270 270 270 269 269 269 268 268 267 266 266 266 265 263 262 260 260 260 260 259 259 260 262 263 264 265 265 266 268 270 272 274 276 277 278 279 280 282 284 284 285 284
275 275 274 273 272 272 271 270 269 268 267 267 266 265 264 262 260 260 260 260 259 259 259 260 261 262 263 264 265 267 268 270 271 273 275 276 277 279 281 282 283 283 282
280 280 279 277 276 275 274 273 272 270 269 269 267 266 264 262 261 260 260 259 259 258 258 258 259 260 262 263 264 265 266 268 269 271 273 274 275 277 279 280 280 280 279
284 283 281 279 278 276 275 273 272 271 270 268 267 265 263 261 260 259 260 259 259 258 257 257 258 259 260 261 262 263 265 267 268 269 271 273 274 275 276 277 277 276 276
Height
5815 5819 5823 5826 5829 5832 5834 5836 5838 5840 5841 5843 5844 5845 5846 5847 5847 5847 5847 5847 5847 5846 5846 5845 5844 5843 5842 5841 5839 5838 5836 5834 5832 5830 5828 5825 5822 5820 5817 5814 5811 5808 5804
5807 5812 5816 5819 5822 5825 5828 5830 5832 5834 5836 5837 5839 5840 5841 5841 5842 5842 5842 5842 5842 5841 5841 5840 5839 5838 5837 5836 5834 5833 5831 5829 5827 5825 5823 5820 5818 5815 5812 5809 5806 5802 5799
5799 5803 5808 5812 5815 5818 5821 5823 5826 5828 5830 5832 5833 5834 5835 5836 5836 5837 5837 5836 5836 5836 5835 5835 5834 5833 5832 5830 5829 5827 5826 5824 5822 5820 5817 5815 5812 5810 5807 5804 5800 5797 5793
5790 5795 5799 5803 5807 5810 5813 5816 5819 5821 5823 5825 5827 5828 5829 5830 5830 5831 5831 5831 5831 5830 5830 5829 5828 5827 5826 5824 5823 5821 5820 5818 5816 5814 5812 5809 5807 5804 5801 5798 5794 5791 5787
5781 5786 5791 5795 5799 5803 5806 5809 5812 5814 5816 5818 5820 5821 5822 5823 5824 5824 5825 5825 5824 5824 5823 5823 5822 5821 5820 5818 5817 5815 5814 5812 5810 5808 5806 5804 5801 5798 5795 5792 5788 5784 5780
5771 5777 5782 5787 5791 5794 5798 5801 5804 5807 5809 5810 5812 5814 5815 5816 5817 5817 5818 5818 5818 5817 5817 5816 5815 5814 5813 5812 5810 5809 5807 5805 5804 5802 5800 5797 5795 5792 5788 5785 5781 5777 5773
5763 5768 5774 5778 5782 5786 5790 5793 5796 5798 5800 5802 5804 5806 5807 5808 5809 5810 5810 5811 5810 5810 5809 5809 5808 5807 5806 5805 5803 5802 5800 5798 5797 5795 5793 5790 5788 5784 5781 5778 5774 5770 5765
5754 5759 5764 5769 5773 5777 5781 5784 5787 5789 5791 5794 5796 5797 5799 5801 5801 5802 5802 5802 5802 5802 5801 5801 5800 5799 5798 5797 5796 5794 5793 5791 5790 5788 5785 5783 5780 5777 5774 5770 5766 5762 5758
5746 5750 5755 5760 5764 5768 5771 5775 5777 5780 5783 5785 5787 5788 5790 5791 5792 5793 5793 5793 5793 5793 5793 5793 5792 5791 5790 5789 5788 5787 5785 5784 5782 5780 5778 5775 5772 5769 5766 5762 5758 5754 5749
5738 5743 5747 5750 5754 5758 5761 5765 5767 5770 5773 5775 5777 5779 5781 5782 5783 5784 5785 5784 5784 5784 5784 5784 5783 5783 5782 5781 5780 5778 5777 5775 5774 5772 5770 5767 5764 5761 5757 5753 5749 5745 5741
5730 5734 5738 5742 5745 5749 5752 5755 5758 5760 5763 5766 5768 5770 5771 5772 5773 5774 5775 5776 5776 5775 5775 5775 5774 5773 5773 5772 5771 5770 5768 5767 5765 5763 5761 5758 5755 5752 5748 5744 5740 5736 5732
5721 5726 5730 5734 5737 5740 5743 5746 5749 5752 5754 5757 5759 5760 5762 5763 5764 5764 5765 5766 5766 5766 5766 5765 5765 5764 5763 5762 5761 5760 5759 5758 5756 5754 5751 5749 5746 5742 5739 5735 5731 5727 5723
5714 5719 5722 5725 5728 5732 5734 5737 5740 5743 5745 5747 5749 5750 5752 5753 5754 5754 5755 5756 5756 5756 5756 5756 5755 5754 5753 5752 5751 5750 5749 5748 5746 5744 5741 5739 5736 5733 5729 5726 5722 5718 5713
5707 5711 5715 5718 5721 5723 5726 5728 5731 5733 5735 5737 5738 5740 5741 5742 5743 5744 5745 5745 5745 5746 5745 5745 5744 5743 5742 5741 5740 5739 5738 5737 5736 5734 5731 5729 5726 5723 5719 5715 5712 5708 5704
5700 5703 5706 5709 5712 5715 5717 5720 5722 5723 5725 5727 5728 5730 5731 5732 5733 5733 5734 5734 5734 5734 5734 5734 5733 5732 5731 5730 5729 5729 5728 5727 5725 5723 5721 5718 5715 5712 5709 5705 5702 5698 5694
5693 5696 5698 5701 5704 5706 5709 5710 5712 5713 5715 5716 5717 5719 5720 5721 5721 5721 5722 5722 5722 5722 5721 5722 5721 5720 5719 5718 5718 5717 5716 5715 5714 5712 5710 5707 5705 5701 5698 5695 5692 5688 5685
5686 5688 5691 5693 5695 5697 5699 5700 5702 5703 5704 5705 5706 5708 5709 5709 5709 5710 5710 5710 5710 5709 5709 5709 5709 5708 5708 5707 5706 5706 5705 5704 5702 5701 5699 5696 5694 5691 5688 5685 5681 5678 5675
5679 5681 5683 5685 5687 5688 5689 5690 5691 5692 5693 5694 5695 5696 5697 5697 5697 5697 5697 5697 5696 5696 5696 5696 5696 5696 5695 5695 5694 5694 5693 5692 5690 5689 5687 5685 5682 5680 5677 5674 5671 5669 5666
5672 5673 5675 5677 5678 5679 5680 5680 5681 5681 5682 5682 5683 5683 5684 5683 5683 5684 5683 5683 5683 5683 5683 5683 5683 5682 5682 5682 5681 5681 5680 5679 5678 5676 5675 5673 5671 5669 5666 5664 5661 5659 5656
5664 5665 5666 5667 5667 5668 5668 5668 5668 5668 5668 5668 5669 5669 5669 5669 5669 5669 5669 5669 5668 5669 5669 5669 5669 5669 5669 5668 5668 5668 5667 5667 5666 5664 5663 5661 5660 5658 5656 5654 5651 5649 5647
5656 5656 5656 5656 5656 5656 5656 5655 5655 5654 5654 5654 5654 5654 5654 5654 5654 5653 5654 5654 5654 5654 5654 5654 5655 5655 5655 5655 5655 5655 5654 5654 5653 5652 5651 5650 5648 5647 5645 5643 5641 5639 5637
5646 5646 5645 5645 5644 5643 5642 5641 5640 5640 5639 5639 5639 5639 5638 5638 5638 5638 5638 5638 5638 5639 5639 5640 5640 5641 5641 5641 5641 5641 5641 5641 5641 5641 5639 5638 5637 5636 5634 5633 5631 5629 5628
5635 5634 5633 5632 5630 5628 5627 5625 5624 5623 5623 5622 5621 5621 5620 5620 5620 5620 5620 5621 5622 5623 5624 5625 5625 5626 5626 5627 5627 5628 5628 5628 5628 5628 5627 5627 5626 5625 5624 5622 5621 5620 5618
5623 5621 5619 5617 5615 5613 5610 5608 5607 5606 5605 5604 5603 5602 5602 5602 5601 5602 5602 5603 5604 5606 5607 5608 5610 5611 5611 5612 5613 5614 5615 5615 5615 5615 5615 5615 5614 5614 5613 5612 5611 5610 5609
5609 5606 5604 5601 5598 5595 5592 5590 5588 5586 5586 5585 5584 5583 5583 5583 5583 5583 5584 5585 5587 5589 5590 5592 5593 5595 5596 5597 5598 5600 5601 5602 5603 5603 5603 5604 5603 5603 5602 5602 5601 5600 5600
5592 5589 5585 5582 5579 5576 5572 5570 5567 5566 5565 5564 5563 5562 5562 5562 5563 5563 5564 5566 5569 5571 5573 5575 5577 5579 5581 5582 5584 5586 5587 5588 5590 5591 5591 5592 5592 5592 5592 5592 5591 5591 5591